FW9226 Weather Reports


Display with metric or nautical units.
time (UTC)temp
F
wind
direction
speed
MPH
gust
MPH
rain 1hr
in
rain 24hr
in
rain mn
in
humidity
%
barometer
mb
20260503220504 61 95 1.0 2.0 0.00 0.00 0.00 67 1013.0
20260503220005 61 217 1.0 3.0 0.00 0.00 0.00 68 1012.8
20260503215506 60 120 1.0 3.0 0.00 0.00 0.00 70 1012.8
20260503215005 60 73 1.0 4.0 0.00 0.00 0.00 69 1012.8
20260503214505 60 286 1.0 4.0 0.00 0.00 0.00 68 1012.8
20260503214006 61 130 1.0 4.0 0.00 0.00 0.00 68 1012.8
20260503213500 60 238 1.0 4.0 0.00 0.00 0.00 69 1012.8
20260503213007 60 113 1.0 4.0 0.00 0.00 0.00 70 1012.8
20260503212505 59 128 1.0 6.0 0.00 0.00 0.00 71 1013.0
20260503212005 59 236 1.0 5.0 0.00 0.00 0.00 71 1013.0
20260503211005 58 56 1.0 5.0 0.00 0.00 0.00 72 1013.0
20260503210504 58 65 1.0 6.0 0.00 0.00 0.00 72 1013.1
20260503210006 59 117 1.0 6.0 0.00 0.00 0.00 71 1013.1
20260503205007 59 122 1.0 4.0 0.00 0.00 0.00 71 1012.7
20260503204506 60 108 1.0 4.0 0.00 0.00 0.00 70 1012.8
20260503204006 61 41 1.0 3.0 0.00 0.00 0.00 67 1012.8
20260503203504 62 126 1.0 4.0 0.00 0.00 0.00 66 1012.7
20260503202506 62 195 1.0 3.0 0.00 0.00 0.00 66 1012.7
20260503202005 62 77 1.0 6.0 0.00 0.00 0.00 67 1012.6
20260503201501 62 225 1.0 4.0 0.00 0.00 0.00 65 1012.6
20260503201004 63 92 1.0 5.0 0.00 0.00 0.00 65 1012.6
20260503200505 63 58 2.0 6.0 0.00 0.00 0.00 64 1012.6
20260503200006 64 131 1.0 4.0 0.00 0.00 0.00 63 1012.8
20260503195506 64 118 1.0 4.0 0.00 0.00 0.00 61 1013.0
20260503195005 65 266 2.0 10.0 0.00 0.00 0.00 60 1012.9
20260503194505 65 205 2.0 10.0 0.00 0.00 0.00 58 1012.9
20260503194005 66 277 2.0 6.0 0.00 0.00 0.00 57 1012.8
20260503193500 66 288 2.0 6.0 0.00 0.00 0.00 58 1012.6
20260503193005 66 136 2.0 6.0 0.00 0.00 0.00 55 1012.6
20260503192505 65 202 2.0 6.0 0.00 0.00 0.00 57 1012.5
20260503192004 66 106 2.0 6.0 0.00 0.00 0.00 56 1012.4
20260503191501 65 127 2.0 5.0 0.00 0.00 0.00 56 1012.4
20260503191007 65 131 1.0 5.0 0.00 0.00 0.00 56 1012.5
20260503190500 64 246 1.0 4.0 0.00 0.00 0.00 57 1012.5
20260503190006 64 269 2.0 6.0 0.00 0.00 0.00 60 1012.5
20260503185005 63 255 2.0 4.0 0.00 0.00 0.00 61 1012.7
20260503184505 62 136 2.0 6.0 0.00 0.00 0.00 62 1012.8
20260503184006 62 134 2.0 6.0 0.00 0.00 0.00 62 1012.7
20260503183505 62 123 2.0 5.0 0.00 0.00 0.00 60 1012.7
20260503183006 62 198 2.0 5.0 0.00 0.00 0.00 60 1012.8
20260503182006 63 242 0.0 2.0 0.00 0.00 0.00 53 1012.8
20260503181005 63 17 0.0 2.0 0.00 0.00 0.00 55 1012.8
20260503180506 63 29 0.0 2.0 0.00 0.00 0.00 49 1012.8
20260503180006 63 96 0.0 1.0 0.00 0.00 0.00 53 1013.0
20260503174005 61 61 0.0 1.0 0.00 0.00 0.00 61 1012.8
20260503173505 60 60 0.0 1.0 0.00 0.00 0.00 60 1012.9
20260503173007 60 53 0.0 1.0 0.00 0.00 0.00 59 1012.8
20260503172500 60 53 0.0 1.0 0.00 0.00 0.00 58 1012.9
20260503172005 60 192 0.0 1.0 0.00 0.00 0.00 57 1012.8
20260503171505 59 119 0.0 2.0 0.00 0.00 0.00 63 1013.0
20260503171005 59 141 0.0 2.0 0.00 0.00 0.00 64 1012.8
20260503170505 59 151 0.0 2.0 0.00 0.00 0.00 63 1013.0
20260503151010 54 262 0.0 0.0 0.00 0.00 0.00 69 1012.4
20260503150504 54 262 0.0 0.0 0.00 0.00 0.00 75 1012.4
20260503131007 51 262 0.0 0.0 0.00 0.00 0.00 67 1011.3
20260503130505 51 262 0.0 1.0 0.00 0.00 0.00 68 1011.3
20260503110506 51 261 0.0 0.0 0.00 0.00 0.00 68 1012.1
20260503090504 55 261 0.0 0.0 0.00 0.00 0.00 64 1012.4
20260503081504 55 261 0.0 0.0 0.00 0.00 0.00 67 1012.8
20260503081006 55 261 0.0 0.0 0.00 0.00 0.00 69 1013.0
20260503071506 55 261 0.0 1.0 0.00 0.00 0.00 73 1013.5
20260503071006 55 262 0.0 0.0 0.00 0.00 0.00 73 1013.5
20260503070505 55 261 0.0 0.0 0.00 0.00 0.00 74 1013.6
20260503055006 56 261 0.0 1.0 0.00 0.00 0.00 72 1013.8
20260503054505 55 261 0.0 1.0 0.00 0.00 0.00 72 1013.9
20260503054006 55 261 0.0 1.0 0.00 0.00 0.00 73 1013.8
20260503053506 55 259 0.0 0.0 0.00 0.00 0.00 72 1013.8
20260503053005 55 259 0.0 0.0 0.00 0.00 0.00 73 1013.9
20260503052505 55 259 0.0 0.0 0.00 0.00 0.00 73 1013.9
20260503051505 55 259 0.0 0.0 0.00 0.00 0.00 74 1014.1
20260503051006 55 259 0.0 0.0 0.00 0.00 0.00 74 1014.0
20260503050505 55 259 0.0 0.0 0.00 0.00 0.00 74 1014.0
20260503050007 55 259 0.0 0.0 0.00 0.00 0.00 73 1014.1
20260503045006 55 259 0.0 0.0 0.00 0.00 0.00 73 1014.0
20260503044505 55 259 0.0 0.0 0.00 0.00 0.00 72 1014.0
20260503044004 55 259 0.0 0.0 0.00 0.00 0.00 72 1014.0
20260503043007 55 259 0.0 0.0 0.00 0.00 0.00 71 1013.8
20260503042504 55 259 0.0 0.0 0.00 0.00 0.00 71 1013.8
20260503042005 56 259 0.0 1.0 0.00 0.00 0.00 72 1013.9
20260503041005 55 259 0.0 0.0 0.00 0.00 0.00 73 1013.7
20260503040007 56 259 0.0 1.0 0.00 0.00 0.00 73 1013.8
20260503035506 56 258 0.0 0.0 0.00 0.00 0.00 72 1013.7
20260503035006 56 259 0.0 0.0 0.00 0.00 0.00 72 1013.6
20260503034507 56 259 0.0 0.0 0.00 0.00 0.00 74 1013.4
20260503033506 57 259 0.0 0.0 0.00 0.00 0.00 73 1013.3
20260503033007 57 259 0.0 0.0 0.00 0.00 0.00 72 1013.3
20260503032504 58 259 0.0 0.0 0.00 0.00 0.00 71 1013.3
20260503032004 58 259 0.0 0.0 0.00 0.00 0.00 70 1013.2
20260503031506 58 259 0.0 0.0 0.00 0.00 0.00 71 1013.3
20260503031005 59 259 0.0 0.0 0.00 0.00 0.00 70 1013.2
20260503030505 59 259 0.0 0.0 0.00 0.00 0.00 70 1013.1
20260503030008 60 259 0.0 0.0 0.00 0.00 0.00 68 1013.2
20260503025506 60 259 0.0 1.0 0.00 0.00 0.00 67 1013.2
20260503025006 60 139 0.0 1.0 0.00 0.00 0.00 67 1013.3
20260503024504 60 137 0.0 0.0 0.00 0.00 0.00 67 1013.2
20260503024005 61 137 0.0 0.0 0.00 0.00 0.00 66 1013.2
20260503023505 61 136 0.0 0.0 0.00 0.00 0.00 65 1013.2
20260503023005 61 137 0.0 0.0 0.00 0.00 0.00 65 1013.1
20260503022505 62 137 0.0 0.0 0.00 0.00 0.00 63 1013.1
20260503021500 62 137 0.0 0.0 0.00 0.00 0.00 63 1013.2
20260503020505 63 137 0.0 0.0 0.00 0.00 0.00 63 1013.3
20260503020005 63 137 0.0 0.0 0.00 0.00 0.00 62 1013.3
20260503015500 63 137 0.0 1.0 0.00 0.00 0.00 61 1013.3
20260503015005 64 137 0.0 1.0 0.00 0.00 0.00 60 1013.3
20260503014506 64 137 0.0 0.0 0.00 0.00 0.00 58 1013.4
20260503014005 64 137 0.0 0.0 0.00 0.00 0.00 58 1013.4
20260503013501 64 137 0.0 0.0 0.00 0.00 0.00 58 1013.4
20260503013006 65 137 0.0 1.0 0.00 0.00 0.00 57 1013.4
20260503012505 65 137 0.0 1.0 0.00 0.00 0.00 58 1013.5
20260503011506 65 207 0.0 2.0 0.00 0.00 0.00 55 1013.4
20260503011005 65 19 0.0 2.0 0.00 0.00 0.00 55 1013.4
20260503010504 65 243 0.0 1.0 0.00 0.00 0.00 56 1013.5
20260503010005 65 144 0.0 2.0 0.00 0.00 0.00 55 1013.5
20260503005504 65 193 0.0 1.0 0.00 0.00 0.00 57 1013.5
20260503005005 65 195 1.0 5.0 0.00 0.00 0.00 57 1013.6
20260503004505 65 205 1.0 5.0 0.00 0.00 0.00 57 1013.5
20260503004005 65 133 1.0 4.0 0.00 0.00 0.00 58 1013.6
20260503003505 66 250 1.0 4.0 0.00 0.00 0.00 57 1013.6
20260503002505 67 252 1.0 5.0 0.00 0.00 0.00 55 1013.6
20260503002006 67 151 1.0 5.0 0.00 0.00 0.00 56 1013.6
20260503001505 67 199 1.0 4.0 0.00 0.00 0.00 57 1013.6
20260503000506 68 111 1.0 5.0 0.00 0.00 0.00 56 1013.7
20260503000004 68 188 0.0 2.0 0.00 0.00 0.00 57 1013.7
20260502235505 68 277 1.0 3.0 0.00 0.00 0.00 56 1013.8
20260502235005 68 240 1.0 3.0 0.00 0.00 0.00 57 1013.7
20260502233500 68 65 1.0 4.0 0.00 0.00 0.00 57 1013.8
20260502232504 68 101 1.0 4.0 0.00 0.00 0.00 58 1013.9
20260502232002 68 130 1.0 4.0 0.00 0.00 0.00 56 1013.9
20260502231500 69 137 1.0 4.0 0.00 0.00 0.00 56 1014.0
20260502231004 69 128 1.0 4.0 0.00 0.00 0.00 56 1013.9
20260502230007 70 301 1.0 4.0 0.00 0.00 0.00 56 1014.0
20260502225505 70 247 1.0 4.0 0.00 0.00 0.00 54 1014.0
20260502225005 70 247 2.0 7.0 0.00 0.00 0.00 53 1014.1
20260502224505 70 141 2.0 7.0 0.00 0.00 0.00 51 1014.2
20260502224004 71 122 1.0 6.0 0.00 0.00 0.00 50 1014.2
20260502223507 72 157 1.0 9.0 0.00 0.00 0.00 50 1014.2
20260502223001 72 293 2.0 9.0 0.00 0.00 0.00 49 1014.3
20260502222500 72 210 1.0 5.0 0.00 0.00 0.00 50 1014.3
20260502222005 72 75 1.0 7.0 0.00 0.00 0.00 51 1014.4
20260502221505 73 108 2.0 7.0 0.00 0.00 0.00 50 1014.5
20260502221000 73 262 2.0 7.0 0.00 0.00 0.00 51 1014.6